Date_and_time,latitude,longitude,wind_speed,RelWindDirFrom,WindDirFrom,air_pressure,air_temperature,relative_humidity,Temp,platform_speed_wrt_ground,air_pressure_at_mean_sea_level,platform_orientation
2018-09-15 00:00,50.63045,-96.98077,5.0,6.4,143,994.91,16.7,81,16.78,0.0,1021.34,360.0
2018-09-15 00:10,50.6304516666667,-96.9807683333333,4.7,5.4,142,994.76,16.6,84,16.70,0.0,1021.16,360.0
2018-09-15 00:20,50.63045,-96.9807683333333,4.5,5.6,150,994.84,16.6,79,16.66,0.0,1021.24,360.0
2018-09-15 00:30,50.63045,-96.9807666666667,3.6,4.8,159,994.78,16.6,81,16.72,0.0,1021.18,360.0
2018-09-15 00:40,50.6304483333333,-96.980745,3.1,4.2,161,994.76,16.5,84,16.78,0.0,1021.17,360.0
2018-09-15 00:50,50.6304466666667,-96.9807783333333,2.7,3.4,167,994.79,16.5,87,16.83,0.0,1021.20,360.0
2018-09-15 01:00,50.6304466666667,-96.9807716666667,3.5,4.5,168,994.81,16.4,89,16.89,0.0,1021.23,360.0
2018-09-15 01:10,50.6304633333333,-96.98074,4.2,5.4,176,994.91,16.4,93,16.87,0.0,1021.34,360.0
2018-09-15 01:20,50.630425,-96.9807616666667,3.8,4.8,175,995.01,16.3,95,16.82,0.0,1021.45,360.0
2018-09-15 01:30,50.6304366666667,-96.9807583333333,2.9,4.0,185,995.11,16.3,94,16.80,0.0,1021.55,360.0
2018-09-15 01:40,50.6304416666667,-96.980755,2.8,3.6,186,995.08,16.2,90,16.90,0.0,1021.52,360.0
2018-09-15 01:50,50.630465,-96.9807616666667,3.3,4.2,187,995.17,16.2,89,16.98,0.0,1021.63,360.0
2018-09-15 02:00,50.6304416666667,-96.98075,2.8,4.0,190,995.17,16.2,92,17.00,0.0,1021.64,134.2
2018-09-15 02:10,50.6304416666667,-96.980755,2.7,3.7,238,995.54,16.3,92,16.98,0.0,1022.01,134.2
2018-09-15 02:20,50.6304416666667,-96.980755,2.9,4.0,276,995.68,16.3,89,16.95,0.0,1022.15,134.2
2018-09-15 02:30,50.6304433333333,-96.980755,3.0,4.0,290,995.61,16.1,88,16.93,0.0,1022.09,134.2
2018-09-15 02:40,50.630445,-96.9807566666667,5.3,16.1,341,995.70,16.2,88,16.87,0.0,1022.19,134.2
2018-09-15 02:50,50.630445,-96.9807566666667,14.1,20.2,355,995.88,14.9,99,16.82,0.0,1022.44,134.2
2018-09-15 03:00,50.630445,-96.98076,16.3,19.6,357,995.99,13.9,99,16.96,0.0,1022.59,360.0
2018-09-15 03:10,50.630445,-96.98076,14.7,19.4,357,996.21,13.6,99,17.05,0.0,1022.83,360.0
2018-09-15 03:20,50.630445,-96.98076,9.9,15.5,341,996.58,13.3,99,16.98,0.0,1023.23,360.0
2018-09-15 03:30,50.630445,-96.98076,11.0,15.0,347,996.54,12.9,99,16.76,0.0,1023.21,360.0
2018-09-15 03:40,50.6304283333333,-96.980765,10.8,16.1,350,996.64,12.7,99,16.70,0.0,1023.32,360.0
2018-09-15 03:50,50.630435,-96.98076,8.2,11.3,345,996.81,12.5,99,16.77,0.0,1023.50,360.0
2018-09-15 04:00,50.63044,-96.9807616666667,7.5,11.7,349,996.60,12.3,99,16.80,0.0,1023.30,119.2
2018-09-15 04:10,50.6304416666667,-96.980765,6.6,8.9,343,996.50,12.1,99,16.84,0.0,1023.21,119.2
2018-09-15 04:20,50.6304433333333,-96.980765,6.6,9.6,333,996.57,11.9,99,16.87,0.0,1023.29,119.2
2018-09-15 04:30,50.6304433333333,-96.9807666666667,6.3,9.5,337,996.43,11.7,99,16.88,0.0,1023.16,119.2
2018-09-15 04:40,50.6304433333333,-96.9807683333333,7.3,11.8,330,996.56,11.6,99,16.88,0.0,1023.36,119.2
2018-09-15 04:50,50.6304433333333,-96.9807683333333,9.2,13.5,346,996.26,11.7,99,16.85,0.0,1023.08,119.2
2018-09-15 05:00,50.6304433333333,-96.9807683333333,9.0,12.9,342,996.36,11.7,99,16.77,0.0,1023.20,270.0
2018-09-15 05:10,50.630445,-96.9807683333333,8.7,13.6,345,996.36,11.7,99,16.75,0.0,1023.22,270.0
2018-09-15 05:20,50.630445,-96.98077,11.8,15.0,356,996.08,12.1,100,16.74,0.0,1022.93,270.0
2018-09-15 05:30,50.630455,-96.9807983333333,14.2,20.1,1,996.11,12.6,100,16.55,0.0,1022.95,270.0
2018-09-15 05:40,50.6304366666667,-96.9807833333333,19.9,23.2,13,995.85,13.4,97,16.52,0.0,1022.65,270.0
2018-09-15 05:50,50.63044,-96.9807783333333,18.7,22.1,12,995.93,13.6,97,16.57,0.0,1022.74,270.0
2018-09-15 06:00,50.6304366666667,-96.98078,18.2,21.1,8,996.19,13.5,97,16.62,0.0,1023.01,253.2
2018-09-15 06:10,50.6304316666667,-96.9807733333333,18.5,22.2,9,996.11,13.4,97,16.62,0.0,1022.95,253.2
2018-09-15 06:20,50.6304316666667,-96.9807666666667,18.7,21.9,14,996.09,13.4,97,16.61,0.0,1022.94,253.2
2018-09-15 06:30,50.6304116666667,-96.980775,16.6,20.9,25,996.07,13.4,97,16.60,0.0,1022.93,253.2
2018-09-15 06:40,50.6304366666667,-96.9807833333333,16.7,19.5,19,996.37,13.5,96,16.61,0.0,1023.22,253.2
2018-09-15 06:50,50.6304466666667,-96.98077,16.5,18.8,17,996.36,13.6,96,16.61,0.0,1023.21,253.2
2018-09-15 07:00,50.6304416666667,-96.980795,16.3,19.5,19,996.28,13.5,95,16.59,0.0,1023.13,270.0
2018-09-15 07:10,50.6304383333333,-96.9807833333333,14.6,17.3,12,996.59,13.4,94,16.57,0.0,1023.43,270.0
2018-09-15 07:20,50.6304366666667,-96.9807816666667,15.4,19.7,6,996.61,13.4,96,16.56,0.0,1023.43,270.0
2018-09-15 07:30,50.63044,-96.98078,14.8,18.3,2,997.02,13.3,96,16.54,0.0,1023.81,270.0
2018-09-15 07:40,50.63044,-96.9807766666667,13.0,16.2,356,997.22,13.0,98,16.53,0.0,1024.03,270.0
2018-09-15 07:50,50.6304366666667,-96.9807733333333,10.0,15.7,350,997.53,12.8,99,16.51,0.0,1024.36,270.0
2018-09-15 08:00,50.63044,-96.9807833333333,8.3,15.7,352,997.44,12.3,99,16.46,0.0,1024.29,270.0
2018-09-15 08:10,50.63044,-96.9807733333333,16.1,19.5,14,996.76,12.8,98,16.43,0.0,1023.58,270.0
2018-09-15 08:20,50.6304416666667,-96.980775,15.9,18.8,8,997.09,12.9,98,16.43,0.0,1023.90,270.0
2018-09-15 08:30,50.6304433333333,-96.9807766666667,14.7,18.3,9,997.19,12.9,98,16.44,0.0,1024.01,270.0
2018-09-15 08:40,50.6304416666667,-96.980775,14.9,18.7,5,997.27,12.9,98,16.46,0.0,1024.08,270.0
2018-09-15 08:50,50.6304483333333,-96.98078,10.7,17.1,353,997.27,12.5,99,16.44,0.0,1024.11,270.0
2018-09-15 09:00,50.6304466666667,-96.9807766666667,7.3,11.3,336,997.39,11.6,100,16.41,0.0,1024.28,36.6
2018-09-15 09:10,50.630445,-96.98077,7.8,10.9,331,997.45,11.2,100,16.40,0.0,1024.36,36.6
2018-09-15 09:20,50.6304433333333,-96.98077,8.1,12.3,334,997.44,11.0,100,16.40,0.0,1024.36,36.6
2018-09-15 09:30,50.6304416666667,-96.98075,8.0,11.3,329,997.48,10.8,100,16.41,0.0,1024.43,36.6
2018-09-15 09:40,50.6304416666667,-96.9807566666667,7.2,11.9,321,997.56,10.4,100,16.45,0.0,1024.54,36.6
2018-09-15 09:50,50.63044,-96.98076,7.8,11.9,332,997.54,10.4,100,16.46,0.0,1024.55,36.6
2018-09-15 10:00,50.6304433333333,-96.98078,8.9,12.6,338,997.53,10.4,100,16.45,0.0,1024.50,90.0
2018-09-15 10:10,50.6304433333333,-96.9807816666667,8.7,12.2,337,997.55,10.4,100,16.45,0.0,1024.52,90.0
2018-09-15 10:20,50.6304416666667,-96.9807733333333,8.7,13.0,333,997.57,10.4,100,16.46,0.0,1024.55,90.0
2018-09-15 10:30,50.6304416666667,-96.9807716666667,8.8,12.0,334,997.64,10.3,100,16.46,0.0,1024.62,90.0
2018-09-15 10:40,50.630425,-96.9807666666667,9.4,14.4,334,997.76,10.2,100,16.45,0.0,1024.76,90.0
2018-09-15 10:50,50.6304383333333,-96.9807666666667,9.2,13.3,337,997.77,10.2,100,16.44,0.0,1024.82,90.0
2018-09-15 11:00,50.6304383333333,-96.98075,9.3,13.0,335,997.80,10.1,100,16.43,0.0,1024.88,90.0
2018-09-15 11:10,50.6304316666667,-96.9807583333333,8.9,12.5,331,998.04,9.9,100,16.42,0.0,1025.14,90.0
2018-09-15 11:20,50.6304333333333,-96.9807616666667,8.6,13.1,334,998.14,9.8,100,16.41,0.0,1025.26,90.0
2018-09-15 11:30,50.6303966666667,-96.9807566666667,9.1,12.8,334,998.09,9.9,100,16.41,0.0,1025.22,90.0
2018-09-15 11:40,50.63043,-96.980775,9.8,12.6,335,998.14,9.8,100,16.40,0.0,1025.28,90.0
2018-09-15 11:50,50.630435,-96.980765,10.3,14.7,340,998.21,9.8,100,16.39,0.0,1025.35,90.0
2018-09-15 12:00,50.6304366666667,-96.980765,10.1,14.5,338,998.19,9.7,100,16.37,0.0,1025.33,165.5
2018-09-15 12:10,50.6304366666667,-96.980765,13.1,19.0,346,998.13,9.8,100,16.36,0.0,1025.27,165.5
2018-09-15 12:20,50.6304383333333,-96.9807633333333,12.2,15.8,346,998.25,9.8,100,16.35,0.0,1025.39,165.5
2018-09-15 12:30,50.6304383333333,-96.9807616666667,10.8,13.9,346,998.39,9.8,100,16.34,0.0,1025.54,165.5
2018-09-15 12:40,50.63043,-96.9807633333333,9.5,14.2,346,998.66,9.6,100,16.34,0.0,1025.83,165.5
2018-09-15 12:50,50.6304416666667,-96.9807683333333,9.8,13.4,348,998.80,9.8,100,16.33,0.0,1025.97,165.5
2018-09-15 13:00,50.6304433333333,-96.98077,11.5,14.4,350,998.72,10.0,100,16.35,0.0,1025.88,90.0
2018-09-15 13:10,50.63044,-96.9807716666667,10.2,13.9,346,998.70,10.1,100,16.31,0.0,1025.87,90.0
2018-09-15 13:20,50.6304366666667,-96.9807666666667,8.9,12.5,342,998.74,10.1,100,16.30,0.0,1025.91,90.0
2018-09-15 13:30,50.630435,-96.9807666666667,9.4,13.9,350,998.71,10.1,100,16.29,0.0,1025.88,90.0
2018-09-15 13:40,50.6304233333333,-96.9807516666667,10.7,14.2,351,998.70,10.2,100,16.28,0.0,1025.86,90.0
2018-09-15 13:50,50.6304316666667,-96.980765,10.2,14.1,350,998.78,10.2,100,16.27,0.0,1025.95,90.0
2018-09-15 14:00,50.630435,-96.9807683333333,8.0,11.9,346,998.99,10.4,100,16.26,0.0,1026.15,234.7
2018-09-15 14:10,50.630445,-96.9807733333333,8.2,12.1,346,998.99,10.2,100,16.24,0.0,1026.16,234.7
2018-09-15 14:20,50.6304416666667,-96.980765,8.5,10.9,348,998.76,10.2,100,16.24,0.0,1025.92,234.7
2018-09-15 14:30,50.63044,-96.9807683333333,10.3,12.7,354,998.59,10.4,100,16.25,0.0,1025.75,234.7
2018-09-15 14:40,50.6304433333333,-96.9807733333333,10.4,12.3,358,998.58,10.6,100,16.25,0.0,1025.72,234.7
2018-09-15 14:50,50.63043,-96.980775,10.0,12.3,358,998.66,10.9,100,16.24,0.0,1025.78,234.7
2018-09-15 15:00,50.630435,-96.9807733333333,8.4,11.9,345,998.76,10.8,100,16.24,0.0,1025.88,270.0
2018-09-15 15:10,50.6304366666667,-96.9807633333333,8.6,11.8,344,998.73,10.5,100,16.23,0.0,1025.87,270.0
2018-09-15 15:20,50.630435,-96.9807616666667,8.4,11.8,348,998.72,10.4,100,16.23,0.0,1025.86,270.0
2018-09-15 15:30,50.630435,-96.9807616666667,8.4,11.6,349,998.97,10.7,100,16.22,0.0,1026.10,270.0
2018-09-15 15:40,50.630435,-96.980765,10.0,13.5,354,998.87,11.1,100,16.22,0.0,1025.97,270.0
2018-09-15 15:50,50.6304333333333,-96.980785,13.6,17.3,9,998.79,11.7,100,16.22,0.0,1025.85,270.0
2018-09-15 16:00,50.6304416666667,-96.9807833333333,14.0,16.9,9,998.73,11.8,100,16.22,0.0,1025.79,270.0
2018-09-15 16:10,50.6304416666667,-96.9807833333333,14.9,19.2,12,998.48,11.9,100,16.21,0.0,1025.53,270.0
2018-09-15 16:20,50.6304416666667,-96.980785,14.9,18.5,11,998.35,11.9,100,16.18,0.0,1025.40,270.0
2018-09-15 16:30,50.6304416666667,-96.9807833333333,15.4,18.3,18,998.32,12.0,100,16.17,0.0,1025.34,270.0
2018-09-15 16:40,50.63044,-96.9807833333333,15.4,18.8,12,998.37,11.9,99,16.17,0.0,1025.39,270.0
2018-09-15 16:50,50.6304416666667,-96.9807833333333,14.7,18.5,12,998.35,11.9,99,16.17,0.0,1025.37,270.0
2018-09-15 17:00,50.6304416666667,-96.9807816666667,14.4,17.4,14,998.43,11.9,99,16.16,0.0,1025.47,291.5
2018-09-15 17:10,50.63044,-96.98078,14.3,17.6,15,998.52,12.0,99,16.16,0.0,1025.56,291.5
2018-09-15 17:20,50.63044,-96.98078,14.2,16.6,18,998.59,12.1,99,16.16,0.0,1025.62,291.5
2018-09-15 17:30,50.63044,-96.98078,14.5,17.7,10,998.57,12.0,99,16.17,0.0,1025.58,291.5
2018-09-15 17:40,50.63044,-96.9807766666667,14.3,17.9,10,998.64,11.9,99,16.17,0.0,1025.62,291.5
2018-09-15 17:50,50.6304416666667,-96.98078,14.1,17.9,15,998.62,12.0,99,16.17,0.0,1025.60,291.5
2018-09-15 18:00,50.6304383333333,-96.9807766666667,13.8,16.5,20,998.78,12.1,99,16.17,0.0,1025.75,360.0
2018-09-15 18:10,50.6304383333333,-96.9807766666667,14.2,16.6,21,998.73,12.2,99,16.18,0.0,1025.69,360.0
2018-09-15 18:20,50.63043,-96.9807816666667,14.7,17.3,17,998.54,12.2,99,16.18,0.0,1025.50,360.0
2018-09-15 18:30,50.630425,-96.980785,13.9,17.6,15,998.45,12.1,99,16.18,0.0,1025.41,360.0
2018-09-15 18:40,50.63043,-96.9807733333333,13.6,16.6,15,998.56,12.1,99,16.19,0.0,1025.53,360.0
2018-09-15 18:50,50.6304283333333,-96.9807766666667,14.3,17.7,19,998.52,12.1,98,16.19,0.0,1025.49,360.0
2018-09-15 19:00,50.6304316666667,-96.9807733333333,14.7,18.0,13,998.38,12.1,98,16.20,0.0,1025.33,131.7
2018-09-15 19:10,50.630435,-96.9807716666667,14.8,18.1,14,998.29,12.2,98,16.19,0.0,1025.24,131.7
2018-09-15 19:20,50.630435,-96.9807716666667,15.1,18.5,17,998.01,12.2,97,16.20,0.0,1024.95,131.7
2018-09-15 19:30,50.63044,-96.980775,16.5,20.1,16,997.83,12.1,98,16.20,0.0,1024.77,131.7
2018-09-15 19:40,50.6304383333333,-96.980775,16.6,19.8,13,997.88,12.2,98,16.21,0.0,1024.82,131.7
2018-09-15 19:50,50.6304366666667,-96.980775,17.6,21.2,13,997.84,12.3,99,16.21,0.0,1024.77,131.7
2018-09-15 20:00,50.6304366666667,-96.980775,18.2,21.9,13,997.62,12.4,99,16.21,0.0,1024.54,119.2
2018-09-15 20:10,50.6304266666667,-96.980765,18.0,22.0,13,997.53,12.3,98,16.21,0.0,1024.45,119.2
2018-09-15 20:20,50.63045,-96.98078,17.4,20.1,10,997.41,12.4,99,16.21,0.0,1024.33,119.2
2018-09-15 20:30,50.6304416666667,-96.9807683333333,17.9,21.7,12,997.17,12.4,97,16.21,0.0,1024.07,119.2
2018-09-15 20:40,50.63044,-96.9807666666667,17.6,21.6,14,997.05,12.4,98,16.22,0.0,1023.95,119.2
2018-09-15 20:50,50.63044,-96.9807666666667,17.9,21.6,19,996.95,12.5,97,16.22,0.0,1023.84,119.2
2018-09-15 21:00,50.6304383333333,-96.9807633333333,16.8,19.6,18,996.96,12.5,98,16.23,0.0,1023.85,90.0
2018-09-15 21:10,50.6304383333333,-96.9807633333333,16.2,20.0,18,997.03,12.6,99,16.23,0.0,1023.92,90.0
2018-09-15 21:20,50.6304366666667,-96.9807666666667,17.0,20.5,16,996.94,12.7,97,16.24,0.0,1023.82,90.0
2018-09-15 21:30,50.6304283333333,-96.9807883333333,17.3,20.3,15,996.88,12.7,96,16.25,0.0,1023.76,90.0
2018-09-15 21:40,50.6304366666667,-96.9807783333333,16.8,19.7,15,996.61,12.8,97,16.26,0.0,1023.48,90.0
2018-09-15 21:50,50.630425,-96.980775,17.9,20.6,17,996.51,12.8,97,16.27,0.0,1023.37,90.0
2018-09-15 22:00,50.6304316666667,-96.980765,18.1,22.0,17,996.16,12.8,98,16.26,0.0,1023.01,90.0
2018-09-15 22:10,50.63043,-96.980765,18.4,21.3,18,996.11,12.8,98,16.24,0.0,1022.95,90.0
2018-09-15 22:20,50.6304316666667,-96.9807683333333,19.9,22.9,16,995.62,13.0,97,16.24,0.0,1022.44,90.0
2018-09-15 22:30,50.63043,-96.9807683333333,20.0,23.6,18,995.41,13.1,96,16.23,0.0,1022.21,90.0
2018-09-15 22:40,50.6304316666667,-96.98077,20.0,24.4,14,995.37,13.2,95,16.22,0.0,1022.17,90.0
2018-09-15 22:50,50.630415,-96.9807633333333,20.3,25.2,16,995.14,13.2,97,16.24,0.0,1021.94,90.0
2018-09-15 23:00,50.630445,-96.9807766666667,20.1,23.5,16,995.27,13.3,97,16.26,0.0,1022.06,38.0
2018-09-15 23:10,50.6304433333333,-96.9807766666667,18.8,23.8,19,995.42,13.4,99,16.27,0.0,1022.20,38.0
2018-09-15 23:20,50.6304233333333,-96.9807666666667,19.2,22.9,22,995.33,13.4,95,16.26,0.0,1022.11,38.0
2018-09-15 23:30,50.6304383333333,-96.9807716666667,18.3,21.4,26,995.41,13.6,92,16.23,0.0,1022.17,38.0
2018-09-15 23:40,50.63045,-96.9807816666667,19.0,21.8,28,995.09,13.7,90,16.25,0.0,1021.84,38.0
